Regional Weather Roundup
Issued by NWS Sioux Falls, SD

Home | Current Version | Previous Version | Text Only | Print | Product List | Glossary On
Versions: 1 2 3 4 5 6 7 8 9 10 11 12 13 14 15 16 17 18 19 20 21 22 23 24 25 26 27 28 29 30 31 32 33 34 35 36 37 38 39 40 41 42 43 44 45 46 47 48 49 50
000
ASUS43 KFSD 172110
RWRFSD

WEATHER ROUNDUP FOR SE SOUTH DAKOTA/SW MINNESOTA/NW IOWA
NATIONAL WEATHER SERVICE SIOUX FALLS SD
400 PM CDT WED SEP 17 2014

NOTE: "FAIR" INDICATES FEW OR NO CLOUDS BELOW 12,000 FEET WITH NO
SIGNIFICANT WEATHER AND OR OBSTRUCTIONS TO VISIBILITY.


SDZ038>040-050-052>070-172200-
SOUTHEAST SOUTH DAKOTA

CITY           SKY/WX    TMP DP  RH WIND       PRES   REMARKS
CHAMBERLAIN    SUNNY     76  55  48 E7        29.92F
HURON          MOSUNNY   78  47  33 N9        29.92S
MADISON        FAIR      73  54  49 NE6       29.94S
MITCHELL       MOSUNNY   79  56  45 VRB6      29.92F
SIOUX FALLS    PTSUNNY   79  56  45 VRB7      29.92S
WINNER         FAIR      80  52  37 E10G20    29.92F
YANKTON        SUNNY     79  55  44 N6        29.90S
$$

MNZ071-072-080-081-089-090-097-098-172200-
SOUTHWEST MINNESOTA

CITY           SKY/WX    TMP DP  RH WIND       PRES   REMARKS
FAIRMONT       MOSUNNY   77  54  44 CALM      29.93S
JACKSON        MOSUNNY   75  52  43 S3        29.94S
LUVERNE        PTSUNNY   77  55  47 NE3       29.92S
MARSHALL       SUNNY     73  54  49 E7        29.93S
MONTEVIDEO     SUNNY     79  55  44 CALM      29.94S
PIPESTONE      MOSUNNY   73  52  46 NE3       29.94S
REDWOOD FALLS  SUNNY     75  51  43 CALM      29.92F
TRACY          MOSUNNY   75  55  49 CALM      29.94S
WINDOM         MOSUNNY   73  57  56 CALM      29.94S
WORTHINGTON    SUNNY     73  55  53 SE3       29.94R
$$

IAZ001>003-012>014-020>022-031-032-NEZ013-014-SDZ071-172200-
NORTHWEST IOWA

CITY           SKY/WX    TMP DP  RH WIND       PRES   REMARKS
CHEROKEE       PTSUNNY   77  56  47 SE5       29.92R
DENISON        CLOUDY    75  59  57 E5        29.90S
ESTHERVILLE    MOSUNNY   74  54  49 CALM      29.93S
LE MARS        SUNNY     77  57  50 SW5       29.91S
ORANGE CITY    MOSUNNY   77  55  47 S3        29.92S
SHELDON        PTSUNNY   75  59  57 S6        29.91S
SIOUX CITY     SUNNY     81  56  42 E3        29.89F
SPENCER        SUNNY     73  56  54 S5        29.93S
STORM LAKE     SUNNY     73  57  56 VRB5      29.93S
$$

ABBREVIATIONS USED IN REMARKS
   TC - TEMPERATURE IN CELSIUS
  WCI - WIND CHILL INDEX
   HX - HEAT INDEX
  VSB - VISIBILITY




USA.gov is the U.S. government's official web portal to all federal, state and local government web resources and services.